Flag for Germany

Past Weather in Lübbecke, North Rhine-Westphalia, Germany — Yesterday and Last 2 Weeks

Now
68 °F

Mild.


Feels Like: 68 °F
Forecast: 63 / 57 °F
Wind: N/A

Location: Bueckeburg

Current Time: Jul 3, 2020 at 7:47:00 pm

Latest Report: Jul 3, 2020 at 6:20 pm


Visibility: N/A

Pressure: 29.98 "Hg

Humidity: 60%

Dew Point: 54 °F

Location of LübbeckeLocation

Past Weather in Lübbecke — Graph

°F

Lübbecke Temperature Yesterday

Maximum temperature yesterday: 72 °F (at 3:20 pm)
Minimum temperature yesterday: 57 °F (at 1:20 am)
Average temperature yesterday: 62 °F

High & Low Weather Summary for the Past Weeks

 TemperatureHumidityPressure
High82 °F (Jun 26, 3:20 pm)100% (Jun 19, 12:20 am)30.30 "Hg (Jun 19, 12:20 am)
Low52 °F (Jun 21, 4:20 am)34% (Jun 23, 7:20 pm)29.68 "Hg (Jul 1, 3:20 am)
Average66 °F68%29.97 "Hg
* Reported Jun 18 6:20 pm — Jul 3 6:20 pm, Lübbecke. Weather by CustomWeather, © 2020

Note: Actual official high and low records may vary slightly from our data, if they occured in-between our weather recording intervals... More about our weather records

Lübbecke Weather History for the Previous 24 Hours

Scroll right to see more
 ConditionsComfort  
Time TempWeatherWind HumidityBarometerVisibility
6:20 pm
Fri, Jul 3
68 °FMild.N/A60%29.98 "HgN/A
5:20 pm68 °FBroken clouds.16 mph56%30.01 "HgN/A
4:20 pm70 °FPartly sunny.18 mph57%30.01 "HgN/A
3:20 pm66 °FPartly sunny.14 mph64%30.01 "HgN/A
2:20 pm64 °FPartly sunny.12 mph68%30.01 "HgN/A
1:20 pm64 °FPartly sunny.10 mph68%30.01 "HgN/A
12:20 pm64 °FBroken clouds.9 mph68%30.01 "HgN/A
12:00 pm63 °FBroken clouds.10 mph73%30.01 "HgN/A
11:20 am63 °FPartly sunny.9 mph77%30.01 "HgN/A
10:20 am61 °FPartly sunny.10 mph83%30.01 "HgN/A
9:29 am61 °FPartly sunny.9 mph83%29.98 "HgN/A
8:20 am59 °FScattered clouds.6 mph88%29.98 "HgN/A
7:20 am57 °FPartly sunny.7 mph94%29.98 "Hg6 mi
6:20 am57 °FPartly sunny.5 mph94%29.98 "HgN/A
5:20 am57 °FCool.N/A94%29.95 "Hg5 mi
4:20 am57 °FCool.N/A94%29.95 "Hg4 mi
3:20 am57 °FCool.N/A100%29.95 "Hg3 mi
2:20 am57 °FCool.N/A94%29.92 "Hg3 mi
1:20 am59 °FCool.N/A94%29.92 "Hg4 mi
12:20 am59 °FCool.N/A94%29.92 "Hg5 mi
11:58 pm
Thu, Jul 2
59 °FSprinkles. Partly cloudy.3 mph94%29.92 "Hg5 mi
11:30 pm59 °FPassing clouds.1 mph94%29.92 "Hg5 mi
11:00 pm59 °FPartly cloudy.2 mph94%29.89 "HgN/A
10:29 pm59 °FRain showers. Partly cloudy.6 mph94%29.89 "HgN/A
10:14 pm59 °FRain showers. Passing clouds.12 mph94%29.89 "Hg2 mi
10:07 pm59 °FSprinkles. Partly cloudy.8 mph94%29.89 "Hg4 mi
9:20 pm61 °FScattered showers. Partly sunny.No wind88%29.86 "HgN/A
8:20 pm61 °FBroken clouds.2 mph88%29.86 "HgN/A
7:20 pm63 °FBroken clouds.2 mph83%29.86 "HgN/A
Weather by CustomWeather, © 2020

See weather overview